Location: Unspecified
(0.0000°N, 0.0000°E)
Time: 22:48:57
(UTC+00:00)

JUGNU - Pass Details

Date: 16 December 2017
Orbit: 837 x 864 km, 20.0° (Epoch: 26 April)

Event Time Altitude Azimuth Distance (km) Brightness Sun altitude
Rises 20:43:52 0° 236° (SW) 3,400 ? -37.9°
Reaches altitude 10° 20:46:37 10° 228° (SW) 2,459 ? -38.5°
Enters shadow 20:49:11 24° 211° (SSW) 1,682 ? -39.0°
